Previsão horária em Abaliget

Hoje, 30 Setembro, Quarta-feira

Tempo Temperatura Precipitação Vento Pressão Humidade
00:00 +13°C° 0 mm 2 m/s 746 mmHg 78%
01:00 +13°C° 0 mm 2 m/s 746 mmHg 81%
02:00 +12°C° 0.1 mm 3 m/s 745 mmHg 82%
03:00 +12°C° 0.1 mm 3 m/s 745 mmHg 82%
04:00 +12°C° 0.1 mm 4 m/s 744 mmHg 83%
05:00 +12°C° 0 mm 4 m/s 744 mmHg 82%
06:00 +12°C° 0 mm 4 m/s 744 mmHg 81%
07:00 +12°C° 0 mm 4 m/s 744 mmHg 79%
08:00 +13°C° 0 mm 5 m/s 744 mmHg 72%
09:00 +15°C° 0 mm 6 m/s 744 mmHg 66%
10:00 +16°C° 0 mm 6 m/s 744 mmHg 59%
11:00 +16°C° 0 mm 7 m/s 743 mmHg 58%
12:00 +16°C° 0 mm 7 m/s 743 mmHg 57%
13:00 +16°C° 0 mm 7 m/s 742 mmHg 56%
14:00 +16°C° 0 mm 6 m/s 742 mmHg 57%
15:00 +16°C° 0 mm 6 m/s 742 mmHg 57%
16:00 +16°C° 0 mm 6 m/s 741 mmHg 58%
17:00 +16°C° 0 mm 5 m/s 741 mmHg 61%
18:00 +15°C° 0 mm 4 m/s 741 mmHg 64%
19:00 +14°C° 0 mm 4 m/s 741 mmHg 68%
20:00 +14°C° 0 mm 4 m/s 741 mmHg 69%
21:00 +14°C° 0 mm 4 m/s 741 mmHg 70%
22:00 +14°C° 0 mm 5 m/s 741 mmHg 71%
23:00 +13°C° 0 mm 4 m/s 741 mmHg 72%

Amanhã, 1 Outubro, Quinta-feira

Tempo Temperatura Precipitação Vento Pressão Humidade
00:00 +13°C° 0 mm 4 m/s 741 mmHg 73%
01:00 +13°C° 0 mm 4 m/s 740 mmHg 74%
02:00 +13°C° 0 mm 4 m/s 740 mmHg 75%
03:00 +13°C° 0 mm 4 m/s 740 mmHg 75%
04:00 +13°C° 0 mm 4 m/s 739 mmHg 76%
05:00 +12°C° 0.2 mm 4 m/s 739 mmHg 78%
06:00 +12°C° 0.2 mm 4 m/s 739 mmHg 79%
07:00 +12°C° 0.2 mm 3 m/s 739 mmHg 81%
08:00 +13°C° 0 mm 3 m/s 739 mmHg 78%
09:00 +13°C° 0 mm 3 m/s 739 mmHg 75%
10:00 +14°C° 0 mm 3 m/s 739 mmHg 73%
11:00 +14°C° 0 mm 3 m/s 739 mmHg 70%
12:00 +16°C° 0 mm 2 m/s 739 mmHg 68%
13:00 +17°C° 0 mm 2 m/s 738 mmHg 65%
14:00 +18°C° 0 mm 1 m/s 738 mmHg 65%
15:00 +18°C° 0 mm 1 m/s 738 mmHg 65%
16:00 +18°C° 0 mm 1 m/s 738 mmHg 65%
17:00 +16°C° 0 mm 1 m/s 738 mmHg 70%
18:00 +15°C° 0 mm 2 m/s 738 mmHg 74%
19:00 +14°C° 0 mm 2 m/s 738 mmHg 78%
20:00 +13°C° 0 mm 2 m/s 738 mmHg 81%
21:00 +13°C° 0 mm 2 m/s 738 mmHg 83%
22:00 +12°C° 0 mm 2 m/s 739 mmHg 86%
23:00 +13°C° 0 mm 2 m/s 739 mmHg 87%

Depois de amanhã, 2 Outubro, Sexta-feira

Tempo Temperatura Precipitação Vento Pressão Humidade
00:00 +13°C° 0 mm 2 m/s 738 mmHg 88%
01:00 +13°C° 0 mm 2 m/s 738 mmHg 89%
02:00 +13°C° 0 mm 2 m/s 738 mmHg 90%
03:00 +13°C° 0 mm 2 m/s 738 mmHg 91%
04:00 +13°C° 0 mm 2 m/s 738 mmHg 92%
05:00 +13°C° 0 mm 2 m/s 739 mmHg 91%
06:00 +14°C° 0 mm 2 m/s 739 mmHg 89%
07:00 +14°C° 0 mm 1 m/s 739 mmHg 88%
08:00 +16°C° 0 mm 2 m/s 739 mmHg 78%
09:00 +19°C° 0 mm 2 m/s 739 mmHg 68%
10:00 +21°C° 0 mm 3 m/s 739 mmHg 58%
11:00 +22°C° 0 mm 3 m/s 739 mmHg 53%
12:00 +23°C° 0 mm 4 m/s 739 mmHg 48%
13:00 +26°C° 0 mm 4 m/s 739 mmHg 44%
14:00 +25°C° 0 mm 4 m/s 738 mmHg 46%
15:00 +25°C° 0 mm 3 m/s 738 mmHg 48%
16:00 +25°C° 0 mm 2 m/s 738 mmHg 50%
17:00 +23°C° 0 mm 2 m/s 738 mmHg 54%
18:00 +20°C° 0 mm 2 m/s 739 mmHg 58%
19:00 +19°C° 0 mm 2 m/s 739 mmHg 63%
20:00 +18°C° 0 mm 2 m/s 739 mmHg 64%
21:00 +18°C° 0 mm 2 m/s 739 mmHg 65%
22:00 +17°C° 0 mm 2 m/s 739 mmHg 67%
23:00 +17°C° 0 mm 2 m/s 739 mmHg 67%

3 Outubro, Sábado

Tempo Temperatura Precipitação Vento Pressão Humidade
00:00 +17°C° 0 mm 2 m/s 739 mmHg 67%
01:00 +17°C° 0 mm 2 m/s 739 mmHg 68%
02:00 +17°C° 0 mm 3 m/s 738 mmHg 70%
03:00 +16°C° 0 mm 3 m/s 738 mmHg 71%
04:00 +16°C° 0 mm 3 m/s 738 mmHg 73%
05:00 +15°C° 0 mm 4 m/s 738 mmHg 73%
06:00 +17°C° 0 mm 4 m/s 738 mmHg 72%
07:00 +17°C° 0 mm 4 m/s 738 mmHg 72%
08:00 +20°C° 0 mm 5 m/s 738 mmHg 64%
09:00 +22°C° 0 mm 5 m/s 738 mmHg 57%
10:00 +26°C° 0 mm 6 m/s 738 mmHg 49%
11:00 +27°C° 0 mm 6 m/s 738 mmHg 46%
12:00 +28°C° 0 mm 6 m/s 737 mmHg 42%
13:00 +30°C° 0 mm 6 m/s 737 mmHg 39%
14:00 +30°C° 0 mm 5 m/s 737 mmHg 40%
15:00 +30°C° 0 mm 4 m/s 737 mmHg 40%
16:00 +29°C° 0 mm 3 m/s 736 mmHg 41%
17:00 +28°C° 0 mm 4 m/s 736 mmHg 43%
18:00 +27°C° 0 mm 4 m/s 736 mmHg 44%
19:00 +26°C° 0 mm 5 m/s 735 mmHg 46%
20:00 +25°C° 0 mm 5 m/s 735 mmHg 47%
21:00 +24°C° 0 mm 6 m/s 735 mmHg 47%
22:00 +24°C° 0 mm 7 m/s 735 mmHg 48%
23:00 +23°C° 0.5 mm 7 m/s 735 mmHg 57%

4 Outubro, Domingo

Tempo Temperatura Precipitação Vento Pressão Humidade
00:00 +21°C° 0.5 mm 6 m/s 735 mmHg 65%
01:00 +20°C° 0.5 mm 6 m/s 736 mmHg 74%
02:00 +17°C° 5.3 mm 5 m/s 736 mmHg 80%
03:00 +17°C° 5.3 mm 3 m/s 737 mmHg 86%
04:00 +16°C° 5.3 mm 2 m/s 737 mmHg 91%
05:00 +16°C° 0 mm 2 m/s 738 mmHg 89%
06:00 +16°C° 0 mm 2 m/s 738 mmHg 87%
07:00 +16°C° 0 mm 3 m/s 739 mmHg 85%
08:00 +17°C° 0 mm 3 m/s 739 mmHg 75%
09:00 +19°C° 0 mm 3 m/s 739 mmHg 65%
10:00 +21°C° 0 mm 3 m/s 740 mmHg 55%
11:00 +22°C° 0 mm 3 m/s 740 mmHg 52%
12:00 +24°C° 0 mm 3 m/s 740 mmHg 49%
13:00 +25°C° 0 mm 3 m/s 739 mmHg 46%
14:00 +24°C° 0.1 mm 3 m/s 739 mmHg 49%
15:00 +24°C° 0.1 mm 2 m/s 739 mmHg 53%
16:00 +24°C° 0.1 mm 2 m/s 738 mmHg 57%
17:00 +21°C° 0.2 mm 2 m/s 738 mmHg 62%
18:00 +20°C° 0.2 mm 1 m/s 738 mmHg 68%
19:00 +19°C° 0.2 mm 1 m/s 738 mmHg 73%
20:00 +19°C° 0.1 mm 1 m/s 738 mmHg 76%
21:00 +18°C° 0.1 mm 1 m/s 738 mmHg 79%
22:00 +17°C° 0.1 mm 2 m/s 738 mmHg 82%
23:00 +16°C° 0 mm 2 m/s 738 mmHg 82%

5 Outubro, Segunda-feira

Tempo Temperatura Precipitação Vento Pressão Humidade
00:00 +16°C° 0 mm 3 m/s 738 mmHg 81%
01:00 +14°C° 0 mm 3 m/s 738 mmHg 80%
02:00 +15°C° 0 mm 2 m/s 737 mmHg 79%
03:00 +15°C° 0 mm 2 m/s 737 mmHg 77%
04:00 +14°C° 0 mm 2 m/s 737 mmHg 76%
05:00 +15°C° 0 mm 2 m/s 737 mmHg 76%
06:00 +15°C° 0 mm 2 m/s 737 mmHg 76%
07:00 +15°C° 0 mm 2 m/s 737 mmHg 76%
08:00 +16°C° 0.7 mm 3 m/s 737 mmHg 77%
09:00 +17°C° 0.7 mm 3 m/s 737 mmHg 78%
10:00 +17°C° 0.7 mm 3 m/s 737 mmHg 79%
11:00 +18°C° 0.3 mm 4 m/s 737 mmHg 73%
12:00 +19°C° 0.3 mm 4 m/s 737 mmHg 68%
13:00 +20°C° 0.3 mm 4 m/s 737 mmHg 62%
14:00 +20°C° 0.2 mm 4 m/s 737 mmHg 62%
15:00 +20°C° 0.2 mm 4 m/s 736 mmHg 63%
16:00 +20°C° 0.2 mm 3 m/s 736 mmHg 63%
17:00 +18°C° 0.1 mm 3 m/s 737 mmHg 67%
18:00 +16°C° 0.1 mm 3 m/s 737 mmHg 72%
19:00 +14°C° 0.1 mm 3 m/s 738 mmHg 76%
20:00 +13°C° 0 mm 3 m/s 738 mmHg 76%
21:00 +13°C° 0 mm 3 m/s 738 mmHg 76%
22:00 +12°C° 0 mm 3 m/s 739 mmHg 76%
23:00 +12°C° 0 mm 3 m/s 739 mmHg 77%
Mostrar mais